Lowell, ID

6:30 PM MST on December 16, 2017 (GMT -0700)
Lowell

Weather History for KP69 - October, 2012

Change the Weather History Date:

Friday, October 5, 2012

  Actual Average Record
Temperature  
Mean Temperature 46 °F -  
Max Temperature 63 °F 63 °F 75 °F (2003)
Min Temperature 30 °F 41 °F 30 °F (2012)
Degree Days  
Heating Degree Days 18    
Moisture  
Dew Point 31 °F    
Average Humidity 69    
Maximum Humidity 89    
Minimum Humidity 31    
Precipitation  
Precipitation 0.00 in - - ()
Sea Level Pressure  
Sea Level Pressure 30.39 in    
Wind  
Wind Speed 1 mph (NNW)    
Max Wind Speed 5 mph    
Max Gust Speed -    
Averages and records for this station are not official NWS values.
T = Trace of Precipitation, MM = Missing Value Source: NWS Daily Summary

Daily Weather History Graph

Daily Weather History Graph

Search for Another Location

Airport or City:

Trip Planner

Search our weather history database for the weather conditions in past years. The results will help you decide how hot, cold, wet, or windy it might be!

Date:

Astronomy

Oct. 05, 2012 Rise Set
Actual Time 7:46 AM MDT 7:13 PM MDT
Civil Twilight 7:16 AM MDT 7:43 PM MDT
Nautical Twilight 6:42 AM MDT 8:18 PM MDT
Astronomical Twilight 6:07 AM MDT 8:53 PM MDT
Moon 10:25 PM MDT (10/5) 1:13 PM MDT (10/5)
Length of Visible Light 12h 26m
Length of Day
11h 26m
Waning Gibbous, 73% of the Moon is Illuminated
Oct 5
Waning Gibbous
Oct 8
Last Quarter
Oct 15
New
Oct 21
First Quarter
Oct 29
Full

Hourly Weather History & Observations

Time (MDT) Temp. Windchill Dew Point Humidity Pressure Visibility Wind Dir Wind Speed Gust Speed Precip Events Conditions
12:52 AM 37.0 °F 34.5 °F 30.9 °F 79% 30.37 in - NNW 3.5 mph - N/A   Unknown
1:52 AM 35.1 °F - 30.9 °F 85% 30.37 in - Calm Calm - N/A   Unknown
2:52 AM 34.0 °F - 30.0 °F 85% 30.38 in - Calm Calm - N/A   Unknown
3:52 AM 33.1 °F - 28.9 °F 85% 30.39 in - Calm Calm - N/A   Unknown
4:52 AM 32.0 °F - 28.9 °F 88% 30.40 in - Calm Calm - N/A   Unknown
5:52 AM 30.9 °F 27.5 °F 28.0 °F 89% 30.42 in - NNW 3.5 mph - N/A   Unknown
6:52 AM 30.9 °F 27.5 °F 28.0 °F 89% 30.43 in - NNW 3.5 mph - N/A   Unknown
7:52 AM 30.0 °F - 27.0 °F 88% 30.47 in - Calm Calm - N/A   Unknown
8:52 AM 30.0 °F - 27.0 °F 88% 30.49 in - Calm Calm - N/A   Unknown
9:52 AM 34.0 °F - 28.9 °F 82% 30.49 in - Calm Calm - N/A   Unknown
10:52 AM 39.9 °F - 30.0 °F 68% 30.47 in - Calm Calm - N/A   Unknown
11:52 AM 45.0 °F - 28.9 °F 53% 30.44 in - Calm Calm - N/A   Unknown
12:52 PM 50.0 °F - 26.1 °F 39% 30.40 in - Calm Calm - N/A   Unknown
1:52 PM 57.9 °F - 27.0 °F 31% 30.35 in - Calm Calm - N/A   Unknown
2:52 PM 60.1 °F - 28.9 °F 31% 30.31 in - Calm Calm - N/A   Unknown
3:52 PM 63.0 °F - 33.1 °F 33% 30.29 in - Calm Calm - N/A   Unknown
4:52 PM 57.0 °F - 32.0 °F 39% 30.28 in - Calm Calm - N/A   Unknown
5:52 PM 53.1 °F - 33.1 °F 47% 30.30 in - Calm Calm - N/A   Unknown
6:52 PM 48.9 °F - 36.0 °F 61% 30.31 in - Calm Calm - N/A   Unknown
7:52 PM 45.0 °F - 36.0 °F 71% 30.35 in - Calm Calm - N/A   Unknown
8:52 PM 42.1 °F 39.2 °F 34.0 °F 73% 30.37 in - NNW 4.6 mph - N/A   Unknown
9:52 PM 41.0 °F - 34.0 °F 76% 30.38 in - Calm Calm - N/A   Unknown
10:52 PM 37.9 °F 35.5 °F 33.1 °F 83% 30.40 in - NNW 3.5 mph - N/A   Unknown
11:52 PM 37.0 °F 34.5 °F 32.0 °F 82% 30.40 in - NNW 3.5 mph - N/A   Unknown